QPF
0.00 0.00 0.00 0.00 0.00 0.00 0.00 0.00 0.00 0.00 0.00 0.00 0.00 0.00 0.00 0.00 0.00 0.00 0.00 0.00 0.00 0.00 0.00 0.00 0.00 0.00 0.00 0.00 0.00 0.00 0.00 0.00 0.00 0.00 0.00 0.00 0.00 0.00 0.00 0.00 0.00 0.00 0.00 0.00
0.00 0.00 0.00 0.00 0.00 0.00 0.00 0.00 0.00 0.00 0.00 0.00 0.00 0.00 0.00 0.00 0.00 0.00 0.00 0.00 0.00 0.00 0.00 0.00 0.00 0.00 0.00 0.00 0.00 0.00 0.00 0.00 0.00 0.00 0.00 0.00 0.00 0.00 0.00 0.00 0.00 0.00 0.00 0.00
0.00 0.00 0.00 0.00 0.00 0.00 0.00 0.00 0.00 0.00 0.00 0.00 0.00 0.00 0.00 0.00 0.00 0.00 0.00 0.00 0.00 0.00 0.00 0.00 0.00 0.00 0.00 0.00 0.00 0.00 0.00 0.00 0.00 0.00 0.00 0.00 0.00 0.00 0.00 0.00 0.00 0.00 0.00 0.00
0.00 0.00 0.00 0.00 0.00 0.00 0.00 0.00 0.00 0.00 0.00 0.00 0.00 0.00 0.00 0.00 0.00 0.00 0.00 0.00 0.00 0.00 0.00 0.00 0.00 0.00 0.00 0.00 0.00 0.00 0.00 0.00 0.00 0.00 0.00 0.00 0.00 0.00 0.00 0.00 0.00 0.00 0.00 0.00
0.00 0.00 0.00 0.00 0.00 0.00 0.00 0.00 0.00 0.00 0.00 0.00 0.00 0.00 0.00 0.00 0.00 0.00 0.00 0.00 0.00 0.00 0.00 0.00 0.00 0.00 0.00 0.00 0.00 0.00 0.00 0.00 0.00 0.00 0.00 0.00 0.00 0.00 0.00 0.00 0.00 0.00 0.00 0.00
0.00 0.00 0.00 0.00 0.00 0.00 0.00 0.00 0.00 0.00 0.00 0.00 0.00 0.00 0.00 0.00 0.00 0.00 0.00 0.00 0.00 0.00 0.00 0.00 0.00 0.00 0.00 0.00 0.00 0.00 0.00 0.00 0.00 0.00 0.00 0.00 0.00 0.00 0.00 0.00 0.00 0.00 0.00 0.00
0.00 0.00 0.00 0.00 0.00 0.00 0.00 0.00 0.00 0.00 0.00 0.00 0.00 0.00 0.00 0.00 0.00 0.00 0.00 0.00 0.00 0.00 0.00 0.00 0.00 0.00 0.00 0.00 0.00 0.00 0.00 0.00 0.00 0.00 0.00 0.00 0.00 0.00 0.00 0.00 0.00 0.00 0.00 0.00
0.00 0.00 0.00 0.00 0.00 0.00 0.00 0.00 0.00 0.00 0.00 0.00 0.00 0.00 0.00 0.00 0.00 0.00 0.00 0.00 0.00 0.00 0.00 0.00 0.00 0.00 0.00 0.00 0.00 0.00 0.00 0.00 0.00 0.00 0.00 0.00 0.00 0.00 0.00 0.00 0.00 0.00 0.00 0.00
0.00 0.00 0.00 0.00 0.00 0.00 0.00 0.00 0.00 0.00 0.00 0.00 0.00 0.00 0.00 0.01 0.01 0.01 0.00 0.00 0.00 0.00 0.00 0.00 0.00 0.00 0.00 0.00 0.00 0.00 0.00 0.00 0.00 0.00 0.00 0.00 0.00 0.00 0.00 0.00 0.00 0.00 0.00 0.00
0.00 0.00 0.00 0.00 0.00 0.00 0.00 0.00 0.00 0.00 0.00 0.00 0.00 0.00 0.01 0.01 0.01 0.00 0.00 0.00 0.00 0.00 0.00 0.00 0.00 0.00 0.00 0.00 0.00 0.00 0.00 0.00 0.00 0.00 0.00 0.00 0.00 0.00 0.00 0.00 0.00 0.00 0.00 0.00
0.00 0.00 0.00 0.00 0.00 0.00 0.00 0.00 0.00 0.00 0.00 0.00 0.01 0.02 0.02 0.02 0.01 0.00 0.00 0.00 0.00 0.00 0.00 0.00 0.00 0.00 0.00 0.00 0.00 0.00 0.00 0.00 0.00 0.00 0.00 0.00 0.00 0.00 0.00 0.00 0.00 0.00 0.00 0.00
0.00 0.00 0.00 0.00 0.00 0.00 0.00 0.00 0.00 0.00 0.00 0.01 0.02 0.03 0.01 0.00 0.00 0.00 0.00 0.00 0.00 0.00 0.00 0.00 0.00 0.00 0.00 0.00 0.00 0.00 0.00 0.00 0.00 0.00 0.00 0.00 0.00 0.00 0.00 0.00 0.00 0.00 0.00 0.00
0.00 0.00 0.00 0.00 0.00 0.00 0.00 0.00 0.00 0.00 0.02 0.03 0.02 0.01 0.00 0.00 0.00 0.00 0.00 0.00 0.00 0.00 0.00 0.00 0.00 0.00 0.00 0.00 0.00 0.00 0.00 0.00 0.00 0.00 0.00 0.00 0.00 0.00 0.00 0.00 0.00 0.00 0.00 0.00
0.00 0.00 0.00 0.00 0.00 0.00 0.00 0.01 0.02 0.04 0.04 0.02 0.01 0.00 0.00 0.00 0.00 0.00 0.00 0.00 0.00 0.00 0.00 0.00 0.00 0.00 0.00 0.00 0.00 0.00 0.00 0.00 0.00 0.00 0.00 0.00 0.00 0.00 0.00 0.00 0.00 0.00 0.00 0.00
0.00 0.00 0.00 0.00 0.00 0.01 0.02 0.04 0.05 0.05 0.02 0.01 0.00 0.00 0.00 0.00 0.00 0.00 0.00 0.00 0.00 0.00 0.00 0.00 0.00 0.00 0.00 0.00 0.00 0.00 0.00 0.00 0.00 0.00 0.00 0.00 0.00 0.00 0.00 0.00 0.00 0.00 0.00 0.00
0.00 0.00 0.00 0.00 0.01 0.03 0.06 0.05 0.03 0.01 0.01 0.00 0.00 0.00 0.00 0.00 0.00 0.00 0.00 0.00 0.00 0.00 0.00 0.00 0.00 0.00 0.00 0.00 0.00 0.00 0.00 0.00 0.00 0.00 0.00 0.00 0.00 0.00 0.00 0.00 0.00 0.00 0.00 0.00
0.00 0.00 0.00 0.01 0.02 0.03 0.02 0.01 0.00 0.00 0.00 0.00 0.00 0.00 0.00 0.00 0.00 0.00 0.00 0.00 0.00 0.00 0.00 0.00 0.00 0.00 0.00 0.00 0.00 0.00 0.00 0.00 0.00 0.00 0.00 0.00 0.00 0.00 0.01 0.01 0.01 0.01 0.00 0.00
0.00 0.00 0.00 0.01 0.01 0.01 0.00 0.00 0.00 0.00 0.00 0.00 0.00 0.00 0.00 0.00 0.00 0.00 0.00 0.00 0.00 0.00 0.00 0.00 0.00 0.00 0.00 0.00 0.00 0.00 0.00 0.00 0.00 0.00 0.00 0.00 0.00 0.01 0.01 0.01 0.01 0.01 0.01 0.00
0.00 0.00 0.00 0.00 0.00 0.00 0.00 0.00 0.00 0.00 0.00 0.00 0.00 0.00 0.00 0.00 0.00 0.00 0.00 0.00 0.00 0.00 0.00 0.00 0.00 0.00 0.00 0.00 0.00 0.00 0.00 0.00 0.00 0.00 0.00 0.00 0.01 0.01 0.01 0.01 0.01 0.01 0.01 0.00
0.00 0.00 0.00 0.00 0.00 0.00 0.00 0.00 0.00 0.00 0.00 0.00 0.00 0.00 0.00 0.00 0.00 0.00 0.00 0.00 0.00 0.00 0.00 0.00 0.00 0.00 0.00 0.00 0.00 0.00 0.00 0.00 0.00 0.00 0.01 0.01 0.01 0.01 0.01 0.01 0.01 0.01 0.01 0.01
0.00 0.00 0.00 0.00 0.00 0.00 0.00 0.00 0.00 0.00 0.00 0.00 0.00 0.00 0.00 0.00 0.00 0.00 0.00 0.00 0.00 0.00 0.00 0.00 0.00 0.00 0.00 0.00 0.00 0.00 0.00 0.01 0.01 0.01 0.01 0.01 0.01 0.01 0.01 0.01 0.01 0.01 0.01 0.01
0.00 0.00 0.00 0.00 0.00 0.00 0.00 0.00 0.00 0.00 0.00 0.00 0.00 0.00 0.00 0.00 0.00 0.00 0.00 0.00 0.00 0.00 0.00 0.00 0.00 0.00 0.00 0.00 0.00 0.01 0.01 0.01 0.01 0.01 0.01 0.01 0.01 0.01 0.01 0.01 0.01 0.01 0.01 0.01
0.00 0.00 0.00 0.00 0.00 0.00 0.00 0.00 0.00 0.00 0.00 0.00 0.00 0.00 0.00 0.00 0.00 0.00 0.00 0.00 0.00 0.00 0.00 0.00 0.00 0.00 0.00 0.00 0.00 0.01 0.01 0.01 0.01 0.01 0.00 0.01 0.01 0.01 0.01 0.01 0.01 0.01 0.01 0.01
0.00 0.00 0.00 0.00 0.00 0.00 0.00 0.00 0.00 0.00 0.00 0.00 0.00 0.00 0.00 0.00 0.00 0.00 0.00 0.00 0.00 0.00 0.00 0.00 0.00 0.00 0.00 0.00 0.00 0.00 0.00 0.00 0.00 0.00 0.00 0.00 0.01 0.01 0.01 0.01 0.01 0.01 0.01 0.00
0.00 0.00 0.00 0.00 0.00 0.00 0.00 0.00 0.00 0.00 0.00 0.00 0.00 0.00 0.00 0.00 0.00 0.00 0.00 0.00 0.00 0.00 0.00 0.00 0.00 0.00 0.00 0.00 0.00 0.00 0.00 0.00 0.00 0.00 0.00 0.01 0.01 0.01 0.01 0.01 0.01 0.01 0.01 0.00
0.00 0.00 0.00 0.00 0.00 0.00 0.00 0.00 0.00 0.00 0.00 0.00 0.00 0.00 0.00 0.00 0.00 0.00 0.00 0.00 0.00 0.00 0.00 0.00 0.00 0.00 0.00 0.00 0.00 0.00 0.00 0.00 0.00 0.00 0.00 0.01 0.01 0.01 0.01 0.01 0.01 0.01 0.00 0.00
0.00 0.00 0.00 0.00 0.00 0.00 0.00 0.00 0.00 0.00 0.00 0.00 0.00 0.00 0.00 0.00 0.00 0.00 0.00 0.00 0.00 0.00 0.00 0.00 0.00 0.00 0.00 0.00 0.00 0.00 0.00 0.00 0.00 0.00 0.00 0.01 0.01 0.01 0.01 0.01 0.01 0.01 0.00 0.00
MSLP
1012.73 1012.87 1012.93 1012.91 1012.81 1012.62 1012.36 1012.01 1011.61 1011.16 1010.71 1010.28 1009.92 1009.66 1009.52 1009.51 1009.63 1009.86 1010.18 1010.53 1010.89 1011.23 1011.51 1011.72 1011.86 1011.92 1011.91 1011.85 1011.74 1011.59 1011.40 1011.18 1010.91 1010.60 1010.24 1009.84 1009.39 1008.91 1008.38 1007.82 1007.22 1006.59 1005.94 1005.26
1013.05 1013.09 1013.02 1012.85 1012.60 1012.27 1011.89 1011.47 1011.04 1010.62 1010.23 1009.90 1009.66 1009.53 1009.52 1009.62 1009.84 1010.14 1010.51 1010.91 1011.31 1011.68 1011.99 1012.24 1012.40 1012.49 1012.51 1012.45 1012.34 1012.17 1011.96 1011.69 1011.38 1011.01 1010.60 1010.13 1009.61 1009.05 1008.45 1007.81 1007.14 1006.45 1005.75 1005.03
1013.36 1013.28 1013.07 1012.75 1012.35 1011.89 1011.40 1010.92 1010.47 1010.07 1009.75 1009.53 1009.41 1009.42 1009.54 1009.77 1010.10 1010.50 1010.94 1011.40 1011.84 1012.25 1012.59 1012.86 1013.04 1013.14 1013.16 1013.10 1012.97 1012.78 1012.52 1012.21 1011.84 1011.42 1010.94 1010.40 1009.81 1009.17 1008.48 1007.77 1007.03 1006.28 1005.54 1004.80
1013.56 1013.36 1013.01 1012.56 1012.03 1011.46 1010.90 1010.38 1009.93 1009.58 1009.34 1009.23 1009.25 1009.39 1009.65 1010.02 1010.45 1010.95 1011.46 1011.98 1012.46 1012.89 1013.25 1013.52 1013.70 1013.80 1013.80 1013.71 1013.55 1013.32 1013.02 1012.66 1012.24 1011.75 1011.21 1010.60 1009.94 1009.23 1008.49 1007.71 1006.92 1006.13 1005.35 1004.61
1013.59 1013.26 1012.80 1012.24 1011.63 1011.00 1010.41 1009.89 1009.49 1009.21 1009.07 1009.08 1009.23 1009.52 1009.91 1010.39 1010.93 1011.50 1012.08 1012.63 1013.13 1013.56 1013.91 1014.16 1014.32 1014.38 1014.34 1014.22 1014.01 1013.73 1013.38 1012.97 1012.50 1011.96 1011.37 1010.71 1010.00 1009.25 1008.46 1007.64 1006.82 1006.01 1005.22 1004.48
1013.40 1012.97 1012.42 1011.80 1011.15 1010.53 1009.97 1009.51 1009.19 1009.01 1009.00 1009.14 1009.43 1009.84 1010.34 1010.92 1011.53 1012.15 1012.75 1013.31 1013.79 1014.20 1014.51 1014.71 1014.82 1014.82 1014.73 1014.55 1014.30 1013.97 1013.57 1013.12 1012.61 1012.04 1011.41 1010.72 1009.99 1009.21 1008.40 1007.57 1006.74 1005.93 1005.15 1004.41
1012.98 1012.48 1011.89 1011.27 1010.66 1010.09 1009.63 1009.28 1009.09 1009.05 1009.17 1009.44 1009.85 1010.36 1010.94 1011.58 1012.22 1012.86 1013.45 1013.97 1014.42 1014.76 1015.01 1015.14 1015.17 1015.11 1014.95 1014.71 1014.40 1014.03 1013.60 1013.11 1012.57 1011.98 1011.34 1010.65 1009.91 1009.13 1008.32 1007.50 1006.69 1005.89 1005.12 1004.40
1012.39 1011.86 1011.29 1010.73 1010.21 1009.77 1009.45 1009.26 1009.22 1009.33 1009.59 1009.98 1010.48 1011.05 1011.68 1012.33 1012.97 1013.57 1014.11 1014.58 1014.94 1015.21 1015.37 1015.42 1015.37 1015.23 1015.01 1014.72 1014.36 1013.95 1013.49 1012.99 1012.44 1011.84 1011.20 1010.52 1009.79 1009.03 1008.24 1007.44 1006.65 1005.87 1005.13 1004.42
1011.70 1011.19 1010.70 1010.25 1009.89 1009.62 1009.48 1009.48 1009.60 1009.86 1010.23 1010.71 1011.26 1011.86 1012.49 1013.11 1013.70 1014.23 1014.70 1015.07 1015.35 1015.52 1015.59 1015.55 1015.43 1015.22 1014.95 1014.61 1014.22 1013.78 1013.31 1012.80 1012.25 1011.67 1011.04 1010.37 1009.66 1008.91 1008.15 1007.38 1006.61 1005.86 1005.13 1004.43
1011.03 1010.59 1010.23 1009.95 1009.77 1009.71 1009.76 1009.93 1010.21 1010.59 1011.05 1011.57 1012.13 1012.71 1013.29 1013.84 1014.35 1014.79 1015.16 1015.43 1015.61 1015.69 1015.67 1015.56 1015.37 1015.12 1014.80 1014.43 1014.03 1013.59 1013.11 1012.61 1012.07 1011.50 1010.88 1010.23 1009.53 1008.81 1008.06 1007.31 1006.56 1005.83 1005.12 1004.43
1010.46 1010.16 1009.96 1009.87 1009.89 1010.03 1010.27 1010.60 1010.99 1011.45 1011.95 1012.47 1013.00 1013.52 1014.02 1014.47 1014.87 1015.21 1015.47 1015.64 1015.73 1015.73 1015.64 1015.47 1015.24 1014.95 1014.61 1014.23 1013.82 1013.39 1012.93 1012.44 1011.92 1011.36 1010.75 1010.11 1009.42 1008.71 1007.97 1007.23 1006.50 1005.77 1005.07 1004.39
1010.09 1009.95 1009.93 1010.04 1010.26 1010.57 1010.96 1011.40 1011.87 1012.36 1012.85 1013.33 1013.79 1014.21 1014.60 1014.95 1015.24 1015.47 1015.63 1015.72 1015.73 1015.66 1015.52 1015.31 1015.05 1014.74 1014.39 1014.01 1013.61 1013.20 1012.75 1012.28 1011.78 1011.23 1010.64 1010.00 1009.32 1008.60 1007.87 1007.13 1006.40 1005.68 1004.98 1004.30
1009.94 1009.96 1010.13 1010.42 1010.80 1011.26 1011.75 1012.26 1012.75 1013.23 1013.67 1014.07 1014.43 1014.76 1015.04 1015.27 1015.46 1015.60 1015.68 1015.69 1015.64 1015.52 1015.33 1015.09 1014.81 1014.49 1014.13 1013.76 1013.38 1012.97 1012.55 1012.10 1011.61 1011.08 1010.50 1009.86 1009.18 1008.47 1007.73 1006.99 1006.25 1005.54 1004.85 1004.19
1009.98 1010.17 1010.50 1010.93 1011.45 1011.99 1012.54 1013.07 1013.55 1013.97 1014.34 1014.65 1014.91 1015.13 1015.31 1015.45 1015.56 1015.62 1015.63 1015.58 1015.48 1015.32 1015.10 1014.83 1014.52 1014.18 1013.82 1013.45 1013.07 1012.68 1012.27 1011.84 1011.37 1010.86 1010.29 1009.66 1008.99 1008.27 1007.54 1006.79 1006.07 1005.36 1004.69 1004.04
1010.16 1010.50 1010.95 1011.50 1012.09 1012.68 1013.24 1013.75 1014.18 1014.54 1014.83 1015.05 1015.22 1015.35 1015.45 1015.52 1015.56 1015.56 1015.52 1015.43 1015.28 1015.08 1014.82 1014.51 1014.17 1013.80 1013.42 1013.04 1012.66 1012.27 1011.88 1011.46 1011.02 1010.52 1009.97 1009.36 1008.71 1008.01 1007.28 1006.55 1005.83 1005.14 1004.49 1003.87
1010.43 1010.87 1011.42 1012.02 1012.65 1013.24 1013.78 1014.24 1014.62 1014.91 1015.12 1015.27 1015.38 1015.45 1015.49 1015.52 1015.51 1015.47 1015.39 1015.25 1015.05 1014.80 1014.49 1014.13 1013.74 1013.33 1012.92 1012.51 1012.12 1011.73 1011.35 1010.95 1010.52 1010.06 1009.54 1008.96 1008.33 1007.66 1006.96 1006.26 1005.56 1004.90 1004.27 1003.68
1010.73 1011.23 1011.82 1012.44 1013.06 1013.63 1014.13 1014.54 1014.85 1015.08 1015.24 1015.35 1015.41 1015.44 1015.46 1015.45 1015.42 1015.34 1015.22 1015.04 1014.79 1014.47 1014.10 1013.68 1013.23 1012.77 1012.31 1011.87 1011.46 1011.07 1010.69 1010.31 1009.91 1009.48 1009.00 1008.46 1007.88 1007.25 1006.59 1005.92 1005.26 1004.62 1004.03 1003.47
1010.99 1011.53 1012.12 1012.73 1013.32 1013.85 1014.29 1014.65 1014.91 1015.10 1015.22 1015.30 1015.34 1015.36 1015.36 1015.34 1015.28 1015.18 1015.01 1014.78 1014.46 1014.08 1013.64 1013.15 1012.64 1012.12 1011.62 1011.15 1010.71 1010.31 1009.94 1009.58 1009.21 1008.82 1008.38 1007.89 1007.36 1006.78 1006.17 1005.54 1004.93 1004.34 1003.78 1003.25
1011.22 1011.75 1012.32 1012.90 1013.43 1013.90 1014.30 1014.61 1014.84 1015.00 1015.11 1015.17 1015.21 1015.23 1015.22 1015.18 1015.09 1014.95 1014.74 1014.45 1014.07 1013.62 1013.11 1012.55 1011.98 1011.41 1010.87 1010.37 1009.93 1009.52 1009.16 1008.81 1008.47 1008.11 1007.72 1007.28 1006.79 1006.27 1005.71 1005.14 1004.57 1004.02 1003.50 1003.01
1011.40 1011.91 1012.44 1012.97 1013.45 1013.86 1014.21 1014.48 1014.69 1014.83 1014.93 1014.99 1015.03 1015.04 1015.01 1014.95 1014.83 1014.64 1014.37 1014.02 1013.58 1013.07 1012.50 1011.89 1011.28 1010.68 1010.11 1009.60 1009.15 1008.74 1008.39 1008.06 1007.73 1007.40 1007.04 1006.64 1006.20 1005.72 1005.22 1004.70 1004.18 1003.68 1003.19 1002.73
1011.56 1012.03 1012.52 1012.99 1013.41 1013.78 1014.09 1014.33 1014.51 1014.64 1014.73 1014.79 1014.81 1014.80 1014.75 1014.64 1014.48 1014.23 1013.91 1013.49 1013.00 1012.44 1011.83 1011.19 1010.56 1009.95 1009.37 1008.86 1008.41 1008.01 1007.66 1007.34 1007.02 1006.70 1006.36 1005.98 1005.57 1005.13 1004.67 1004.20 1003.73 1003.28 1002.84 1002.41
1011.71 1012.15 1012.59 1013.00 1013.38 1013.70 1013.97 1014.18 1014.34 1014.45 1014.53 1014.56 1014.56 1014.51 1014.41 1014.26 1014.03 1013.72 1013.34 1012.87 1012.33 1011.74 1011.11 1010.47 1009.84 1009.23 1008.67 1008.17 1007.73 1007.33 1006.98 1006.65 1006.33 1006.00 1005.66 1005.29 1004.89 1004.48 1004.06 1003.63 1003.21 1002.81 1002.43 1002.05
1011.86 1012.27 1012.67 1013.04 1013.37 1013.65 1013.89 1014.07 1014.20 1014.29 1014.33 1014.33 1014.28 1014.18 1014.02 1013.80 1013.51 1013.14 1012.69 1012.18 1011.61 1011.01 1010.37 1009.74 1009.13 1008.55 1008.01 1007.53 1007.09 1006.70 1006.33 1005.98 1005.64 1005.29 1004.92 1004.54 1004.15 1003.75 1003.36 1002.98 1002.61 1002.27 1001.94 1001.62
1012.03 1012.41 1012.78 1013.11 1013.40 1013.65 1013.85 1014.00 1014.10 1014.15 1014.15 1014.10 1013.99 1013.83 1013.60 1013.30 1012.94 1012.51 1012.02 1011.47 1010.88 1010.27 1009.65 1009.04 1008.45 1007.90 1007.38 1006.91 1006.47 1006.06 1005.67 1005.29 1004.91 1004.52 1004.12 1003.72 1003.32 1002.93 1002.57 1002.23 1001.92 1001.64 1001.38 1001.12
1012.22 1012.58 1012.92 1013.22 1013.47 1013.68 1013.85 1013.96 1014.02 1014.03 1013.98 1013.88 1013.71 1013.48 1013.18 1012.81 1012.38 1011.89 1011.35 1010.78 1010.17 1009.56 1008.96 1008.37 1007.80 1007.27 1006.76 1006.29 1005.84 1005.40 1004.97 1004.54 1004.11 1003.67 1003.24 1002.82 1002.41 1002.03 1001.70 1001.40 1001.15 1000.94 1000.75 1000.57
1012.44 1012.78 1013.09 1013.35 1013.57 1013.75 1013.87 1013.95 1013.97 1013.93 1013.83 1013.67 1013.44 1013.14 1012.78 1012.35 1011.86 1011.32 1010.75 1010.15 1009.53 1008.92 1008.32 1007.73 1007.17 1006.64 1006.13 1005.63 1005.15 1004.67 1004.19 1003.71 1003.22 1002.74 1002.27 1001.83 1001.42 1001.07 1000.76 1000.52 1000.33 1000.19 1000.07 999.96
1012.70 1013.01 1013.28 1013.51 1013.69 1013.82 1013.91 1013.94 1013.92 1013.84 1013.70 1013.49 1013.20 1012.85 1012.43 1011.95 1011.41 1010.83 1010.22 1009.59 1008.96 1008.33 1007.72 1007.12 1006.55 1005.99 1005.45 1004.91 1004.38 1003.84 1003.31 1002.77 1002.24 1001.72 1001.23 1000.78 1000.39 1000.06 999.80 999.61 999.48 999.40 999.35 999.30
Thickness
5644 5648 5648 5647 5647 5648 5644 5645 5640 5652 5658 5668 5670 5668 5666 5660 5653 5647 5641 5635 5628 5621 5614 5608 5600 5593 5585 5579 5574 5570 5567 5563 5561 5558 5555 5551 5548 5546 5544 5543 5541 5540 5540 5540
5634 5641 5641 5639 5644 5644 5644 5646 5645 5647 5651 5664 5664 5662 5657 5652 5645 5637 5631 5623 5615 5607 5597 5587 5578 5570 5563 5556 5551 5547 5543 5541 5539 5535 5531 5527 5525 5523 5522 5522 5521 5521 5520 5520
5621 5632 5627 5625 5645 5646 5645 5650 5646 5640 5648 5656 5653 5649 5645 5641 5634 5626 5617 5608 5597 5585 5573 5563 5555 5549 5541 5534 5529 5525 5520 5517 5512 5507 5504 5502 5501 5501 5500 5499 5500 5500 5500 5499
5611 5614 5601 5636 5664 5659 5653 5653 5650 5648 5647 5646 5641 5636 5632 5627 5618 5605 5593 5582 5570 5559 5549 5540 5532 5524 5515 5508 5503 5499 5494 5489 5484 5482 5480 5479 5478 5477 5477 5477 5477 5476 5477 5478
5599 5599 5612 5641 5654 5651 5642 5640 5646 5641 5639 5634 5623 5617 5609 5603 5592 5577 5564 5554 5543 5533 5523 5514 5506 5497 5488 5482 5476 5472 5468 5463 5460 5458 5458 5458 5457 5456 5455 5456 5456 5456 5458 5459
5595 5588 5593 5627 5636 5639 5631 5621 5635 5634 5627 5618 5606 5590 5584 5578 5569 5556 5544 5533 5521 5509 5498 5488 5480 5472 5464 5457 5452 5448 5445 5442 5439 5437 5436 5437 5437 5436 5435 5435 5436 5438 5441 5442
5588 5585 5600 5626 5626 5623 5603 5608 5618 5617 5611 5602 5590 5578 5568 5559 5546 5533 5520 5508 5497 5485 5474 5463 5456 5449 5442 5436 5432 5430 5428 5424 5421 5419 5418 5418 5417 5416 5415 5415 5416 5418 5421 5423
5587 5583 5588 5622 5617 5604 5603 5611 5608 5603 5595 5585 5572 5559 5547 5532 5518 5506 5494 5483 5472 5460 5450 5442 5436 5430 5424 5419 5416 5414 5410 5406 5404 5402 5400 5400 5397 5396 5394 5392 5393 5394 5395 5396
5590 5592 5607 5612 5605 5601 5599 5596 5591 5583 5574 5564 5552 5536 5519 5504 5490 5478 5468 5457 5447 5437 5430 5423 5417 5411 5405 5402 5399 5396 5392 5389 5387 5386 5383 5380 5377 5374 5372 5369 5367 5366 5364 5363
5592 5601 5600 5596 5591 5583 5578 5570 5561 5554 5546 5538 5523 5506 5490 5476 5463 5453 5444 5433 5425 5418 5411 5405 5399 5393 5388 5385 5383 5380 5377 5375 5372 5370 5368 5363 5357 5352 5347 5343 5338 5335 5332 5331
5581 5584 5581 5581 5575 5569 5561 5552 5542 5531 5519 5508 5494 5479 5464 5452 5442 5432 5423 5414 5408 5401 5395 5391 5386 5380 5374 5371 5368 5365 5361 5357 5354 5350 5345 5341 5336 5329 5322 5317 5309 5306 5304 5303
5568 5570 5566 5564 5560 5553 5544 5534 5522 5507 5491 5477 5467 5455 5443 5434 5424 5415 5407 5400 5393 5387 5381 5376 5371 5366 5361 5356 5351 5346 5342 5337 5332 5328 5322 5316 5311 5309 5305 5296 5293 5289 5288 5287
5564 5563 5558 5553 5543 5531 5522 5510 5497 5485 5472 5456 5444 5435 5426 5417 5408 5400 5392 5385 5378 5372 5365 5360 5356 5351 5346 5341 5335 5327 5321 5317 5312 5307 5300 5294 5289 5284 5283 5286 5283 5280 5279 5278
5553 5547 5541 5532 5514 5502 5491 5479 5466 5454 5445 5435 5425 5416 5407 5398 5390 5382 5375 5369 5363 5357 5351 5346 5342 5337 5331 5325 5318 5311 5304 5298 5292 5286 5280 5274 5268 5265 5263 5265 5271 5275 5273 5269
5534 5521 5510 5495 5484 5473 5463 5453 5442 5432 5424 5416 5406 5397 5389 5380 5373 5366 5360 5355 5350 5344 5337 5332 5327 5322 5315 5308 5300 5293 5286 5280 5274 5269 5263 5257 5254 5251 5251 5253 5256 5259 5261 5261
5504 5492 5482 5474 5465 5454 5444 5434 5425 5416 5406 5397 5387 5380 5372 5365 5358 5353 5348 5343 5337 5331 5324 5318 5312 5306 5299 5290 5282 5276 5270 5265 5258 5253 5248 5244 5242 5241 5241 5241 5243 5245 5247 5249
5484 5476 5467 5460 5451 5439 5427 5416 5408 5399 5389 5380 5372 5365 5359 5352 5346 5341 5336 5330 5324 5317 5309 5301 5296 5290 5282 5272 5263 5257 5253 5249 5244 5239 5234 5232 5231 5230 5229 5230 5232 5234 5237 5239
5476 5470 5461 5449 5435 5420 5408 5400 5392 5382 5374 5367 5360 5353 5346 5339 5333 5328 5322 5317 5310 5303 5295 5286 5279 5272 5264 5253 5246 5241 5237 5234 5230 5226 5225 5223 5222 5222 5222 5222 5223 5225 5229 5232
5458 5450 5440 5429 5418 5406 5395 5386 5377 5368 5362 5354 5346 5339 5333 5327 5321 5315 5309 5301 5293 5286 5282 5273 5264 5255 5247 5239 5233 5230 5226 5222 5220 5218 5216 5216 5216 5214 5214 5214 5216 5218 5221 5226
5433 5424 5416 5408 5400 5390 5381 5372 5364 5355 5348 5341 5333 5326 5320 5314 5307 5300 5293 5286 5275 5265 5262 5256 5249 5242 5235 5229 5225 5221 5218 5215 5213 5212 5211 5209 5208 5208 5208 5209 5211 5213 5216 5220
5410 5403 5396 5388 5380 5374 5367 5359 5350 5343 5335 5328 5320 5314 5308 5302 5294 5285 5275 5270 5265 5254 5248 5243 5237 5231 5226 5222 5220 5215 5212 5209 5207 5206 5204 5203 5202 5203 5203 5204 5205 5207 5210 5214
5394 5386 5378 5371 5364 5358 5351 5344 5337 5331 5323 5316 5309 5302 5296 5289 5280 5272 5262 5252 5248 5242 5237 5232 5227 5223 5219 5216 5213 5209 5206 5204 5202 5200 5199 5197 5197 5197 5197 5197 5198 5201 5203 5206
5380 5373 5366 5358 5351 5345 5339 5331 5325 5319 5311 5303 5296 5288 5281 5273 5263 5253 5248 5243 5235 5231 5227 5222 5218 5215 5212 5209 5207 5204 5201 5199 5196 5194 5193 5191 5190 5190 5189 5190 5192 5195 5198 5201
5368 5361 5354 5346 5339 5332 5324 5319 5313 5307 5299 5292 5284 5276 5267 5259 5252 5242 5234 5231 5226 5222 5218 5214 5211 5208 5206 5203 5200 5197 5194 5192 5190 5188 5186 5185 5184 5184 5184 5185 5187 5190 5193 5197
5354 5346 5338 5330 5324 5318 5313 5308 5301 5294 5288 5281 5274 5265 5255 5245 5237 5232 5225 5221 5217 5213 5210 5206 5204 5201 5198 5194 5192 5190 5188 5186 5184 5182 5181 5180 5180 5179 5180 5181 5183 5185 5187 5191
5338 5332 5325 5319 5315 5309 5302 5295 5288 5281 5275 5269 5262 5252 5242 5233 5225 5220 5215 5211 5207 5203 5200 5197 5195 5193 5190 5187 5185 5183 5181 5180 5178 5176 5176 5176 5176 5177 5178 5179 5180 5181 5183 5188
5325 5318 5311 5307 5302 5295 5287 5280 5273 5266 5259 5252 5246 5239 5230 5223 5217 5211 5206 5202 5198 5196 5193 5191 5188 5185 5182 5180 5178 5176 5174 5173 5172 5173 5173 5174 5174 5176 5177 5178 5179 5180 5183 5188